• In Czech Republic
  • List of Countries
  • For 7 days
  • Water Temperature
  • Satellite Maps
  • Weather Map
  • Weather Widgets
  • user-avatar
    Login

    Hourly Weather Lezhe

    Today, 19 October, Thursday

    Time Temperature Precipitation Wind Pressure Humidity
    00:00 +18°C° 0 mm 1 mps 739 mmHg 55%
    01:00 +18°C° 0 mm 1 mps 739 mmHg 54%
    02:00 +18°C° 0 mm 1 mps 739 mmHg 54%
    03:00 +18°C° 0 mm 1 mps 739 mmHg 54%
    04:00 +16°C° 0 mm 1 mps 739 mmHg 55%
    05:00 +18°C° 0 mm 1 mps 739 mmHg 55%
    06:00 +18°C° 0 mm 1 mps 739 mmHg 56%
    07:00 +19°C° 0 mm 1 mps 739 mmHg 55%
    08:00 +21°C° 0 mm 1 mps 739 mmHg 50%
    09:00 +23°C° 0 mm 1 mps 739 mmHg 45%
    10:00 +24°C° 0 mm 1 mps 739 mmHg 40%
    11:00 +25°C° 0 mm 2 mps 739 mmHg 39%
    12:00 +25°C° 0 mm 2 mps 739 mmHg 38%
    13:00 +25°C° 0 mm 2 mps 739 mmHg 39%
    14:00 +25°C° 0 mm 2 mps 739 mmHg 44%
    15:00 +24°C° 0 mm 2 mps 739 mmHg 48%
    16:00 +23°C° 0 mm 1 mps 739 mmHg 52%
    17:00 +21°C° 0 mm 1 mps 739 mmHg 57%
    18:00 +20°C° 0 mm 1 mps 739 mmHg 63%
    19:00 +18°C° 0 mm 1 mps 739 mmHg 68%
    20:00 +18°C° 0 mm 1 mps 739 mmHg 67%
    21:00 +16°C° 0 mm 1 mps 739 mmHg 67%
    22:00 +16°C° 0 mm 1 mps 739 mmHg 66%
    23:00 +16°C° 0 mm 1 mps 739 mmHg 66%

    Tomorrow, 20 October, Friday

    Time Temperature Precipitation Wind Pressure Humidity
    00:00 +16°C° 0 mm 1 mps 739 mmHg 65%
    01:00 +15°C° 0 mm 1 mps 739 mmHg 64%
    02:00 +15°C° 0 mm 1 mps 739 mmHg 64%
    03:00 +15°C° 0 mm 1 mps 739 mmHg 64%
    04:00 +15°C° 0 mm 1 mps 739 mmHg 63%
    05:00 +15°C° 0 mm 1 mps 739 mmHg 63%
    06:00 +16°C° 0 mm 1 mps 739 mmHg 62%
    07:00 +16°C° 0 mm 1 mps 740 mmHg 61%
    08:00 +19°C° 0 mm 1 mps 740 mmHg 56%
    09:00 +21°C° 0 mm 1 mps 740 mmHg 51%
    10:00 +23°C° 0 mm 1 mps 740 mmHg 46%
    11:00 +24°C° 0 mm 1 mps 740 mmHg 46%
    12:00 +24°C° 0 mm 2 mps 740 mmHg 45%
    13:00 +24°C° 0 mm 2 mps 740 mmHg 44%
    14:00 +24°C° 0 mm 2 mps 740 mmHg 49%
    15:00 +23°C° 0 mm 2 mps 739 mmHg 54%
    16:00 +22°C° 0 mm 1 mps 739 mmHg 58%
    17:00 +20°C° 0 mm 1 mps 740 mmHg 65%
    18:00 +19°C° 0 mm 1 mps 740 mmHg 72%
    19:00 +16°C° 0 mm 1 mps 740 mmHg 79%
    20:00 +16°C° 0 mm 1 mps 740 mmHg 79%
    21:00 +15°C° 0 mm 1 mps 741 mmHg 78%
    22:00 +15°C° 0 mm 1 mps 741 mmHg 78%
    23:00 +15°C° 0 mm 1 mps 741 mmHg 77%

    Day after tomorrow, 21 October, Saturday

    Time Temperature Precipitation Wind Pressure Humidity
    00:00 +15°C° 0 mm 1 mps 741 mmHg 77%
    01:00 +15°C° 0 mm 1 mps 741 mmHg 76%
    02:00 +14°C° 0 mm 1 mps 741 mmHg 75%
    03:00 +14°C° 0 mm 1 mps 740 mmHg 74%
    04:00 +14°C° 0 mm 1 mps 740 mmHg 73%
    05:00 +14°C° 0 mm 1 mps 740 mmHg 70%
    06:00 +15°C° 0 mm 1 mps 740 mmHg 68%
    07:00 +15°C° 0 mm 1 mps 740 mmHg 65%
    08:00 +18°C° 0 mm 1 mps 741 mmHg 57%
    09:00 +21°C° 0 mm 1 mps 741 mmHg 49%
    10:00 +23°C° 0 mm 1 mps 741 mmHg 41%
    11:00 +23°C° 0 mm 2 mps 740 mmHg 41%
    12:00 +24°C° 0 mm 2 mps 740 mmHg 40%
    13:00 +24°C° 0 mm 3 mps 739 mmHg 39%
    14:00 +22°C° 0 mm 3 mps 739 mmHg 45%
    15:00 +22°C° 0 mm 3 mps 739 mmHg 51%
    16:00 +21°C° 0 mm 2 mps 739 mmHg 58%
    17:00 +19°C° 0 mm 2 mps 739 mmHg 65%
    18:00 +17°C° 0 mm 2 mps 739 mmHg 72%
    19:00 +16°C° 0 mm 1 mps 739 mmHg 80%
    20:00 +16°C° 0 mm 1 mps 739 mmHg 79%
    21:00 +15°C° 0 mm 1 mps 739 mmHg 78%
    22:00 +15°C° 0 mm 1 mps 739 mmHg 78%
    23:00 +15°C° 0 mm 1 mps 739 mmHg 77%

    22 October, Sunday

    Time Temperature Precipitation Wind Pressure Humidity
    00:00 +14°C° 0 mm 1 mps 739 mmHg 77%
    01:00 +14°C° 0 mm 1 mps 739 mmHg 77%
    02:00 +14°C° 0 mm 1 mps 739 mmHg 76%
    03:00 +14°C° 0 mm 1 mps 739 mmHg 76%
    04:00 +13°C° 0 mm 1 mps 738 mmHg 75%
    05:00 +14°C° 0 mm 1 mps 738 mmHg 72%
    06:00 +14°C° 0 mm 1 mps 738 mmHg 69%
    07:00 +15°C° 0 mm 1 mps 738 mmHg 66%
    08:00 +18°C° 0 mm 1 mps 738 mmHg 60%
    09:00 +20°C° 0 mm 1 mps 738 mmHg 53%
    10:00 +22°C° 0 mm 1 mps 738 mmHg 47%
    11:00 +21°C° 0 mm 2 mps 738 mmHg 48%
    12:00 +23°C° 0 mm 2 mps 737 mmHg 50%
    13:00 +23°C° 0 mm 2 mps 737 mmHg 51%
    14:00 +21°C° 0 mm 2 mps 736 mmHg 57%
    15:00 +20°C° 0 mm 2 mps 736 mmHg 63%
    16:00 +20°C° 0 mm 2 mps 736 mmHg 69%
    17:00 +19°C° 0 mm 1 mps 735 mmHg 75%
    18:00 +18°C° 0 mm 1 mps 735 mmHg 81%
    19:00 +16°C° 0 mm 1 mps 735 mmHg 87%
    20:00 +16°C° 0 mm 1 mps 735 mmHg 85%
    21:00 +16°C° 0 mm 2 mps 735 mmHg 83%
    22:00 +16°C° 0 mm 2 mps 735 mmHg 81%
    23:00 +16°C° 0.1 mm 2 mps 734 mmHg 79%

    23 October, Monday

    Time Temperature Precipitation Wind Pressure Humidity
    00:00 +16°C° 0.1 mm 2 mps 734 mmHg 77%
    01:00 +16°C° 0.1 mm 2 mps 733 mmHg 75%
    02:00 +16°C° 0.6 mm 3 mps 732 mmHg 75%
    03:00 +16°C° 0.6 mm 3 mps 732 mmHg 75%
    04:00 +14°C° 0.6 mm 4 mps 731 mmHg 75%
    05:00 +14°C° 2.1 mm 4 mps 731 mmHg 79%
    06:00 +14°C° 2.1 mm 4 mps 731 mmHg 82%
    07:00 +14°C° 2.1 mm 4 mps 730 mmHg 85%
    08:00 +14°C° 2.6 mm 4 mps 730 mmHg 86%
    09:00 +14°C° 2.7 mm 4 mps 730 mmHg 87%
    10:00 +15°C° 2.7 mm 4 mps 730 mmHg 87%
    11:00 +16°C° 0.5 mm 3 mps 730 mmHg 84%
    12:00 +17°C° 0.5 mm 3 mps 729 mmHg 82%
    13:00 +17°C° 0.5 mm 3 mps 729 mmHg 79%
    14:00 +17°C° 0.6 mm 2 mps 729 mmHg 78%
    15:00 +17°C° 0.6 mm 2 mps 729 mmHg 78%
    16:00 +16°C° 0.6 mm 1 mps 729 mmHg 78%
    17:00 +16°C° 0.7 mm 2 mps 729 mmHg 81%
    18:00 +15°C° 0.7 mm 2 mps 729 mmHg 84%
    19:00 +14°C° 0.7 mm 2 mps 729 mmHg 87%
    20:00 +14°C° 0.2 mm 2 mps 729 mmHg 87%
    21:00 +12°C° 0.2 mm 3 mps 729 mmHg 86%
    22:00 +12°C° 0.2 mm 3 mps 729 mmHg 86%
    23:00 +12°C° 0.4 mm 3 mps 729 mmHg 86%

    24 October, Tuesday

    Time Temperature Precipitation Wind Pressure Humidity
    00:00 +11°C° 0.4 mm 3 mps 729 mmHg 85%
    01:00 +11°C° 0.4 mm 3 mps 729 mmHg 85%
    02:00 +11°C° 0.3 mm 4 mps 729 mmHg 83%
    03:00 +11°C° 0.3 mm 4 mps 729 mmHg 82%
    04:00 +10°C° 0.3 mm 5 mps 729 mmHg 81%
    05:00 +11°C° 0.2 mm 4 mps 729 mmHg 81%
    06:00 +11°C° 0.2 mm 4 mps 729 mmHg 81%
    07:00 +11°C° 0.2 mm 4 mps 730 mmHg 80%
    08:00 +12°C° 0.1 mm 4 mps 730 mmHg 76%
    09:00 +13°C° 0.1 mm 5 mps 730 mmHg 71%
    10:00 +14°C° 0.1 mm 5 mps 730 mmHg 67%
    11:00 +15°C° 0.1 mm 5 mps 730 mmHg 66%
    12:00 +15°C° 0.1 mm 6 mps 730 mmHg 66%
    13:00 +15°C° 0.1 mm 6 mps 729 mmHg 65%
    14:00 +15°C° 0.2 mm 6 mps 730 mmHg 68%
    15:00 +14°C° 0.2 mm 6 mps 730 mmHg 70%
    16:00 +14°C° 0.2 mm 6 mps 730 mmHg 73%
    17:00 +14°C° 0.2 mm 6 mps 730 mmHg 74%
    18:00 +14°C° 0.2 mm 6 mps 731 mmHg 76%
    19:00 +13°C° 0.2 mm 6 mps 731 mmHg 77%
    20:00 +13°C° 0.2 mm 6 mps 732 mmHg 77%
    21:00 +13°C° 0.2 mm 6 mps 732 mmHg 78%
    22:00 +13°C° 0.2 mm 6 mps 733 mmHg 78%
    23:00 +13°C° 0.1 mm 6 mps 733 mmHg 78%
    Show more